owner,sensor,date,latitude,longitude,vertical_datum,sea_water_practical_salinity,qcFlag 
TCOON,ioos:station:TCOON:072:1,2014-08-01T00:30:00Z,27.8392,-97.4440,0.0,27.8,1111122 
TCOON,ioos:station:TCOON:072:1,2014-08-01T01:30:00Z,27.8392,-97.4440,0.0,26.0,1111122 
TCOON,ioos:station:TCOON:072:1,2014-08-01T02:30:00Z,27.8392,-97.4440,0.0,26.6,1111122 
TCOON,ioos:station:TCOON:072:1,2014-08-01T03:30:00Z,27.8392,-97.4440,0.0,27.8,1111122 
TCOON,ioos:station:TCOON:072:1,2014-08-01T04:30:00Z,27.8392,-97.4440,0.0,28.6,1111122 
TCOON,ioos:station:TCOON:072:1,2014-08-01T05:30:00Z,27.8392,-97.4440,0.0,28.9,1111122 
TCOON,ioos:station:TCOON:072:1,2014-08-01T07:00:00Z,27.8392,-97.4440,0.0,30.0,1111122 
TCOON,ioos:station:TCOON:072:1,2014-08-01T08:00:00Z,27.8392,-97.4440,0.0,27.4,1111122 
TCOON,ioos:station:TCOON:072:1,2014-08-01T08:30:00Z,27.8392,-97.4440,0.0,26.9,1111122 
TCOON,ioos:station:TCOON:072:1,2014-08-01T09:30:00Z,27.8392,-97.4440,0.0,27.2,1111122 
TCOON,ioos:station:TCOON:072:1,2014-08-01T10:30:00Z,27.8392,-97.4440,0.0,27.1,1111122 
TCOON,ioos:station:TCOON:072:1,2014-08-01T11:30:00Z,27.8392,-97.4440,0.0,28.0,1111122 
TCOON,ioos:station:TCOON:072:1,2014-08-01T12:30:00Z,27.8392,-97.4440,0.0,30.0,1111122 
TCOON,ioos:station:TCOON:072:1,2014-08-01T13:30:00Z,27.8392,-97.4440,0.0,30.6,1111122 
TCOON,ioos:station:TCOON:072:1,2014-08-01T14:30:00Z,27.8392,-97.4440,0.0,30.8,1111122 
TCOON,ioos:station:TCOON:072:1,2014-08-01T15:30:00Z,27.8392,-97.4440,0.0,28.9,1111122 
TCOON,ioos:station:TCOON:072:1,2014-08-01T16:30:00Z,27.8392,-97.4440,0.0,29.2,1111122 
TCOON,ioos:station:TCOON:072:1,2014-08-01T17:30:00Z,27.8392,-97.4440,0.0,30.1,1111122 
TCOON,ioos:station:TCOON:072:1,2014-08-01T19:00:00Z,27.8392,-97.4440,0.0,29.7,1111122 
TCOON,ioos:station:TCOON:072:1,2014-08-01T20:00:00Z,27.8392,-97.4440,0.0,29.7,1111122 
TCOON,ioos:station:TCOON:072:1,2014-08-01T20:30:00Z,27.8392,-97.4440,0.0,29.8,1111122 
TCOON,ioos:station:TCOON:072:1,2014-08-01T21:30:00Z,27.8392,-97.4440,0.0,29.8,1111122 
TCOON,ioos:station:TCOON:072:1,2014-08-01T23:00:00Z,27.8392,-97.4440,0.0,30.0,1111122 
TCOON,ioos:station:TCOON:072:1,2014-08-01T23:30:00Z,27.8392,-97.4440,0.0,29.9,1111122 
TCOON,ioos:station:TCOON:072:1,2014-08-02T01:00:00Z,27.8392,-97.4440,0.0,28.9,1111122 
TCOON,ioos:station:TCOON:072:1,2014-08-02T02:00:00Z,27.8392,-97.4440,0.0,28.7,1111122 
TCOON,ioos:station:TCOON:072:1,2014-08-02T02:30:00Z,27.8392,-97.4440,0.0,28.4,1111122 
TCOON,ioos:station:TCOON:072:1,2014-08-02T03:30:00Z,27.8392,-97.4440,0.0,27.5,1111122 
TCOON,ioos:station:TCOON:072:1,2014-08-02T05:00:00Z,27.8392,-97.4440,0.0,26.6,1111122 
TCOON,ioos:station:TCOON:072:1,2014-08-02T05:30:00Z,27.8392,-97.4440,0.0,27.5,1111122 
TCOON,ioos:station:TCOON:072:1,2014-08-02T06:30:00Z,27.8392,-97.4440,0.0,27.6,1111122 
TCOON,ioos:station:TCOON:072:1,2014-08-02T07:30:00Z,27.8392,-97.4440,0.0,26.6,1111122 
TCOON,ioos:station:TCOON:072:1,2014-08-02T08:30:00Z,27.8392,-97.4440,0.0,28.0,1111122 
TCOON,ioos:station:TCOON:072:1,2014-08-02T09:30:00Z,27.8392,-97.4440,0.0,27.8,1111122 
TCOON,ioos:station:TCOON:072:1,2014-08-02T10:30:00Z,27.8392,-97.4440,0.0,28.1,1111122 
TCOON,ioos:station:TCOON:072:1,2014-08-02T12:00:00Z,27.8392,-97.4440,0.0,28.4,1111122 
TCOON,ioos:station:TCOON:072:1,2014-08-02T12:30:00Z,27.8392,-97.4440,0.0,27.2,1111122 
TCOON,ioos:station:TCOON:072:1,2014-08-03T00:30:00Z,27.8392,-97.4440,0.0,33.1,1111122 
TCOON,ioos:station:TCOON:072:1,2014-08-03T02:00:00Z,27.8392,-97.4440,0.0,33.1,1111122 
TCOON,ioos:station:TCOON:072:1,2014-08-03T02:30:00Z,27.8392,-97.4440,0.0,33.2,1111122 
TCOON,ioos:station:TCOON:072:1,2014-08-03T03:30:00Z,27.8392,-97.4440,0.0,33.2,1111122 
TCOON,ioos:station:TCOON:072:1,2014-08-03T04:30:00Z,27.8392,-97.4440,0.0,33.6,1111122 
TCOON,ioos:station:TCOON:072:1,2014-08-03T05:30:00Z,27.8392,-97.4440,0.0,33.5,1111122 
TCOON,ioos:station:TCOON:072:1,2014-08-03T07:00:00Z,27.8392,-97.4440,0.0,33.5,1111122 
TCOON,ioos:station:TCOON:072:1,2014-08-03T07:30:00Z,27.8392,-97.4440,0.0,33.1,1111122 
TCOON,ioos:station:TCOON:072:1,2014-08-03T08:30:00Z,27.8392,-97.4440,0.0,33.3,1111122 
TCOON,ioos:station:TCOON:072:1,2014-08-03T09:30:00Z,27.8392,-97.4440,0.0,33.2,1111122 
TCOON,ioos:station:TCOON:072:1,2014-08-03T10:30:00Z,27.8392,-97.4440,0.0,33.0,1111122 
TCOON,ioos:station:TCOON:072:1,2014-08-03T11:30:00Z,27.8392,-97.4440,0.0,32.6,1111122 
TCOON,ioos:station:TCOON:072:1,2014-08-03T12:30:00Z,27.8392,-97.4440,0.0,32.2,1111122 
TCOON,ioos:station:TCOON:072:1,2014-08-03T13:30:00Z,27.8392,-97.4440,0.0,31.8,1111122 
TCOON,ioos:station:TCOON:072:1,2014-08-03T14:30:00Z,27.8392,-97.4440,0.0,31.7,1111122 
TCOON,ioos:station:TCOON:072:1,2014-08-03T16:30:00Z,27.8392,-97.4440,0.0,31.5,1111122 
TCOON,ioos:station:TCOON:072:1,2014-08-03T17:30:00Z,27.8392,-97.4440,0.0,30.6,1111122 
TCOON,ioos:station:TCOON:072:1,2014-08-03T19:00:00Z,27.8392,-97.4440,0.0,30.8,1111122 
TCOON,ioos:station:TCOON:072:1,2014-08-03T19:30:00Z,27.8392,-97.4440,0.0,30.6,1111122 
TCOON,ioos:station:TCOON:072:1,2014-08-03T20:30:00Z,27.8392,-97.4440,0.0,29.6,1111122 
TCOON,ioos:station:TCOON:072:1,2014-08-03T22:00:00Z,27.8392,-97.4440,0.0,29.2,1111122 
TCOON,ioos:station:TCOON:072:1,2014-08-03T23:00:00Z,27.8392,-97.4440,0.0,29.0,1111122 
TCOON,ioos:station:TCOON:072:1,2014-08-03T23:30:00Z,27.8392,-97.4440,0.0,29.0,1111122 
TCOON,ioos:station:TCOON:072:1,2014-08-04T00:30:00Z,27.8392,-97.4440,0.0,28.8,1111122 
TCOON,ioos:station:TCOON:072:1,2014-08-04T01:30:00Z,27.8392,-97.4440,0.0,27.8,1111122 
TCOON,ioos:station:TCOON:072:1,2014-08-04T02:30:00Z,27.8392,-97.4440,0.0,27.6,1111122 
TCOON,ioos:station:TCOON:072:1,2014-08-04T03:30:00Z,27.8392,-97.4440,0.0,27.5,1111122 
TCOON,ioos:station:TCOON:072:1,2014-08-04T04:30:00Z,27.8392,-97.4440,0.0,27.6,1111122 
TCOON,ioos:station:TCOON:072:1,2014-08-04T05:30:00Z,27.8392,-97.4440,0.0,28.8,1111122 
TCOON,ioos:station:TCOON:072:1,2014-08-04T07:00:00Z,27.8392,-97.4440,0.0,29.4,1111122 
TCOON,ioos:station:TCOON:072:1,2014-08-04T07:30:00Z,27.8392,-97.4440,0.0,29.5,1111122 
TCOON,ioos:station:TCOON:072:1,2014-08-04T08:30:00Z,27.8392,-97.4440,0.0,29.8,1111122 
TCOON,ioos:station:TCOON:072:1,2014-08-04T09:30:00Z,27.8392,-97.4440,0.0,30.1,1111122 
TCOON,ioos:station:TCOON:072:1,2014-08-04T10:30:00Z,27.8392,-97.4440,0.0,30.5,1111122 
TCOON,ioos:station:TCOON:072:1,2014-08-04T11:30:00Z,27.8392,-97.4440,0.0,29.9,1111122 
TCOON,ioos:station:TCOON:072:1,2014-08-04T12:30:00Z,27.8392,-97.4440,0.0,29.6,1111122 
TCOON,ioos:station:TCOON:072:1,2014-08-04T13:30:00Z,27.8392,-97.4440,0.0,29.6,1111122 
TCOON,ioos:station:TCOON:072:1,2014-08-04T14:30:00Z,27.8392,-97.4440,0.0,29.6,1111122 
TCOON,ioos:station:TCOON:072:1,2014-08-04T15:30:00Z,27.8392,-97.4440,0.0,29.7,1111122 
TCOON,ioos:station:TCOON:072:1,2014-08-04T16:30:00Z,27.8392,-97.4440,0.0,29.2,1111122 
TCOON,ioos:station:TCOON:072:1,2014-08-04T17:30:00Z,27.8392,-97.4440,0.0,29.2,1111122 
TCOON,ioos:station:TCOON:072:1,2014-08-04T18:30:00Z,27.8392,-97.4440,0.0,28.9,1111122 
TCOON,ioos:station:TCOON:072:1,2014-08-04T19:30:00Z,27.8392,-97.4440,0.0,28.7,1111122 
TCOON,ioos:station:TCOON:072:1,2014-08-04T20:30:00Z,27.8392,-97.4440,0.0,28.8,1111122 
TCOON,ioos:station:TCOON:072:1,2014-08-04T21:30:00Z,27.8392,-97.4440,0.0,28.9,1111122 
TCOON,ioos:station:TCOON:072:1,2014-08-04T23:00:00Z,27.8392,-97.4440,0.0,29.0,1111122 
TCOON,ioos:station:TCOON:072:1,2014-08-05T00:00:00Z,27.8392,-97.4440,0.0,29.8,1111122 
TCOON,ioos:station:TCOON:072:1,2014-08-05T00:30:00Z,27.8392,-97.4440,0.0,29.6,1111122 
TCOON,ioos:station:TCOON:072:1,2014-08-05T01:30:00Z,27.8392,-97.4440,0.0,28.3,1111122 
TCOON,ioos:station:TCOON:072:1,2014-08-05T02:30:00Z,27.8392,-97.4440,0.0,28.6,1111122 
TCOON,ioos:station:TCOON:072:1,2014-08-05T03:30:00Z,27.8392,-97.4440,0.0,29.0,1111122 
TCOON,ioos:station:TCOON:072:1,2014-08-05T04:30:00Z,27.8392,-97.4440,0.0,28.2,1111122 
TCOON,ioos:station:TCOON:072:1,2014-08-05T05:30:00Z,27.8392,-97.4440,0.0,28.4,1111122 
TCOON,ioos:station:TCOON:072:1,2014-08-05T06:30:00Z,27.8392,-97.4440,0.0,28.8,1111122 
TCOON,ioos:station:TCOON:072:1,2014-08-05T07:30:00Z,27.8392,-97.4440,0.0,29.3,1111122 
TCOON,ioos:station:TCOON:072:1,2014-08-05T08:30:00Z,27.8392,-97.4440,0.0,28.7,1111122 
TCOON,ioos:station:TCOON:072:1,2014-08-05T09:30:00Z,27.8392,-97.4440,0.0,28.8,1111122 
TCOON,ioos:station:TCOON:072:1,2014-08-05T10:30:00Z,27.8392,-97.4440,0.0,29.2,1111122 
TCOON,ioos:station:TCOON:072:1,2014-08-05T11:30:00Z,27.8392,-97.4440,0.0,29.2,1111122 
TCOON,ioos:station:TCOON:072:1,2014-08-05T12:30:00Z,27.8392,-97.4440,0.0,29.7,1111122 
TCOON,ioos:station:TCOON:072:1,2014-08-05T13:30:00Z,27.8392,-97.4440,0.0,29.8,1111122 
TCOON,ioos:station:TCOON:072:1,2014-08-05T14:30:00Z,27.8392,-97.4440,0.0,29.8,1111122 
TCOON,ioos:station:TCOON:072:1,2014-08-05T15:30:00Z,27.8392,-97.4440,0.0,30.0,1111122 
TCOON,ioos:station:TCOON:072:1,2014-08-05T16:30:00Z,27.8392,-97.4440,0.0,30.1,1111122 
TCOON,ioos:station:TCOON:072:1,2014-08-05T17:30:00Z,27.8392,-97.4440,0.0,30.3,1111122 
TCOON,ioos:station:TCOON:072:1,2014-08-05T18:30:00Z,27.8392,-97.4440,0.0,30.3,1111122 
TCOON,ioos:station:TCOON:072:1,2014-08-05T19:30:00Z,27.8392,-97.4440,0.0,30.1,1111122 
TCOON,ioos:station:TCOON:072:1,2014-08-05T20:30:00Z,27.8392,-97.4440,0.0,30.1,1111122 
TCOON,ioos:station:TCOON:072:1,2014-08-05T21:30:00Z,27.8392,-97.4440,0.0,30.1,1111122 
TCOON,ioos:station:TCOON:072:1,2014-08-05T22:30:00Z,27.8392,-97.4440,0.0,30.0,1111122 
TCOON,ioos:station:TCOON:072:1,2014-08-06T01:30:00Z,27.8392,-97.4440,0.0,29.5,1111122 
TCOON,ioos:station:TCOON:072:1,2014-08-06T03:30:00Z,27.8392,-97.4440,0.0,28.7,1111122 
TCOON,ioos:station:TCOON:072:1,2014-08-06T05:00:00Z,27.8392,-97.4440,0.0,28.4,1111122 
TCOON,ioos:station:TCOON:072:1,2014-08-06T05:30:00Z,27.8392,-97.4440,0.0,28.3,1111122 
TCOON,ioos:station:TCOON:072:1,2014-08-06T07:00:00Z,27.8392,-97.4440,0.0,28.3,1111122 
TCOON,ioos:station:TCOON:072:1,2014-08-06T07:30:00Z,27.8392,-97.4440,0.0,28.3,1111122 
TCOON,ioos:station:TCOON:072:1,2014-08-06T08:30:00Z,27.8392,-97.4440,0.0,28.6,1111122 
TCOON,ioos:station:TCOON:072:1,2014-08-06T09:30:00Z,27.8392,-97.4440,0.0,29.0,1111122 
TCOON,ioos:station:TCOON:072:1,2014-08-06T10:30:00Z,27.8392,-97.4440,0.0,29.1,1111122 
TCOON,ioos:station:TCOON:072:1,2014-08-06T11:30:00Z,27.8392,-97.4440,0.0,29.0,1111122 
TCOON,ioos:station:TCOON:072:1,2014-08-06T12:30:00Z,27.8392,-97.4440,0.0,29.0,1111122 
TCOON,ioos:station:TCOON:072:1,2014-08-06T13:30:00Z,27.8392,-97.4440,0.0,29.4,1111122 
TCOON,ioos:station:TCOON:072:1,2014-08-06T14:30:00Z,27.8392,-97.4440,0.0,29.4,1111122 
TCOON,ioos:station:TCOON:072:1,2014-08-06T15:30:00Z,27.8392,-97.4440,0.0,29.6,1111122 
TCOON,ioos:station:TCOON:072:1,2014-08-06T16:30:00Z,27.8392,-97.4440,0.0,30.0,1111122 
TCOON,ioos:station:TCOON:072:1,2014-08-06T17:30:00Z,27.8392,-97.4440,0.0,29.8,1111122 
TCOON,ioos:station:TCOON:072:1,2014-08-06T18:30:00Z,27.8392,-97.4440,0.0,30.0,1111122 
TCOON,ioos:station:TCOON:072:1,2014-08-06T19:30:00Z,27.8392,-97.4440,0.0,30.1,1111122 
TCOON,ioos:station:TCOON:072:1,2014-08-06T20:30:00Z,27.8392,-97.4440,0.0,30.0,1111122 
TCOON,ioos:station:TCOON:072:1,2014-08-06T21:30:00Z,27.8392,-97.4440,0.0,30.1,1111122 
TCOON,ioos:station:TCOON:072:1,2014-08-06T22:30:00Z,27.8392,-97.4440,0.0,29.7,1111122 
TCOON,ioos:station:TCOON:072:1,2014-08-06T23:30:00Z,27.8392,-97.4440,0.0,29.6,1111122 
TCOON,ioos:station:TCOON:072:1,2014-08-07T00:30:00Z,27.8392,-97.4440,0.0,29.8,1111122 
TCOON,ioos:station:TCOON:072:1,2014-08-07T01:30:00Z,27.8392,-97.4440,0.0,29.5,1111122 
TCOON,ioos:station:TCOON:072:1,2014-08-07T02:30:00Z,27.8392,-97.4440,0.0,29.3,1111122 
TCOON,ioos:station:TCOON:072:1,2014-08-07T03:30:00Z,27.8392,-97.4440,0.0,28.5,1111122 
TCOON,ioos:station:TCOON:072:1,2014-08-07T04:30:00Z,27.8392,-97.4440,0.0,26.6,1111122 
TCOON,ioos:station:TCOON:072:1,2014-08-07T05:30:00Z,27.8392,-97.4440,0.0,28.2,1111122 
TCOON,ioos:station:TCOON:072:1,2014-08-07T07:30:00Z,27.8392,-97.4440,0.0,29.9,1111122 
TCOON,ioos:station:TCOON:072:1,2014-08-07T08:30:00Z,27.8392,-97.4440,0.0,30.0,1111122 
TCOON,ioos:station:TCOON:072:1,2014-08-07T09:30:00Z,27.8392,-97.4440,0.0,30.5,1111122 
TCOON,ioos:station:TCOON:072:1,2014-08-07T10:30:00Z,27.8392,-97.4440,0.0,30.5,1111122 
TCOON,ioos:station:TCOON:072:1,2014-08-07T11:30:00Z,27.8392,-97.4440,0.0,30.6,1111122 
TCOON,ioos:station:TCOON:072:1,2014-08-07T13:30:00Z,27.8392,-97.4440,0.0,30.1,1111122 
TCOON,ioos:station:TCOON:072:1,2014-08-07T14:30:00Z,27.8392,-97.4440,0.0,29.9,1111122 
TCOON,ioos:station:TCOON:072:1,2014-08-07T15:30:00Z,27.8392,-97.4440,0.0,29.9,1111122 
TCOON,ioos:station:TCOON:072:1,2014-08-07T16:30:00Z,27.8392,-97.4440,0.0,29.8,1111122 
TCOON,ioos:station:TCOON:072:1,2014-08-07T17:30:00Z,27.8392,-97.4440,0.0,29.9,1111122 
TCOON,ioos:station:TCOON:072:1,2014-08-07T18:30:00Z,27.8392,-97.4440,0.0,30.1,1111122 
TCOON,ioos:station:TCOON:072:1,2014-08-07T19:30:00Z,27.8392,-97.4440,0.0,30.0,1111122 
TCOON,ioos:station:TCOON:072:1,2014-08-07T20:30:00Z,27.8392,-97.4440,0.0,29.8,1111122 
TCOON,ioos:station:TCOON:072:1,2014-08-07T21:30:00Z,27.8392,-97.4440,0.0,29.9,1111122 
TCOON,ioos:station:TCOON:072:1,2014-08-07T22:30:00Z,27.8392,-97.4440,0.0,30.4,1111122 
TCOON,ioos:station:TCOON:072:1,2014-08-07T23:30:00Z,27.8392,-97.4440,0.0,29.2,1111122 
TCOON,ioos:station:TCOON:072:1,2014-08-08T00:30:00Z,27.8392,-97.4440,0.0,27.9,1111122 
TCOON,ioos:station:TCOON:072:1,2014-08-08T02:00:00Z,27.8392,-97.4440,0.0,29.3,1111122 
TCOON,ioos:station:TCOON:072:1,2014-08-08T02:30:00Z,27.8392,-97.4440,0.0,29.0,1111122 
TCOON,ioos:station:TCOON:072:1,2014-08-08T03:30:00Z,27.8392,-97.4440,0.0,29.2,1111122 
TCOON,ioos:station:TCOON:072:1,2014-08-08T04:30:00Z,27.8392,-97.4440,0.0,28.9,1111122 
TCOON,ioos:station:TCOON:072:1,2014-08-08T05:30:00Z,27.8392,-97.4440,0.0,29.1,1111122 
TCOON,ioos:station:TCOON:072:1,2014-08-08T07:00:00Z,27.8392,-97.4440,0.0,29.3,1111122 
TCOON,ioos:station:TCOON:072:1,2014-08-08T07:30:00Z,27.8392,-97.4440,0.0,29.3,1111122 
TCOON,ioos:station:TCOON:072:1,2014-08-08T08:30:00Z,27.8392,-97.4440,0.0,27.8,1111122 
TCOON,ioos:station:TCOON:072:1,2014-08-08T09:30:00Z,27.8392,-97.4440,0.0,31.1,1111122 
TCOON,ioos:station:TCOON:072:1,2014-08-08T10:30:00Z,27.8392,-97.4440,0.0,31.4,1111122 
TCOON,ioos:station:TCOON:072:1,2014-08-08T11:30:00Z,27.8392,-97.4440,0.0,31.3,1111122 
TCOON,ioos:station:TCOON:072:1,2014-08-08T12:30:00Z,27.8392,-97.4440,0.0,30.2,1111122 
TCOON,ioos:station:TCOON:072:1,2014-08-08T13:30:00Z,27.8392,-97.4440,0.0,29.8,1111122 
TCOON,ioos:station:TCOON:072:1,2014-08-08T14:30:00Z,27.8392,-97.4440,0.0,29.4,1111122 
TCOON,ioos:station:TCOON:072:1,2014-08-08T16:00:00Z,27.8392,-97.4440,0.0,30.3,1111122 
TCOON,ioos:station:TCOON:072:1,2014-08-08T16:30:00Z,27.8392,-97.4440,0.0,30.5,1111122 
TCOON,ioos:station:TCOON:072:1,2014-08-08T17:30:00Z,27.8392,-97.4440,0.0,30.7,1111122 
TCOON,ioos:station:TCOON:072:1,2014-08-08T18:30:00Z,27.8392,-97.4440,0.0,30.9,1111122 
TCOON,ioos:station:TCOON:072:1,2014-08-08T20:00:00Z,27.8392,-97.4440,0.0,31.0,1111122 
TCOON,ioos:station:TCOON:072:1,2014-08-08T20:30:00Z,27.8392,-97.4440,0.0,31.1,1111122 
TCOON,ioos:station:TCOON:072:1,2014-08-08T21:30:00Z,27.8392,-97.4440,0.0,30.8,1111122 
TCOON,ioos:station:TCOON:072:1,2014-08-08T22:30:00Z,27.8392,-97.4440,0.0,30.6,1111122 
TCOON,ioos:station:TCOON:072:1,2014-08-08T23:30:00Z,27.8392,-97.4440,0.0,30.8,1111122 
TCOON,ioos:station:TCOON:072:1,2014-08-09T00:30:00Z,27.8392,-97.4440,0.0,31.0,1111122 
TCOON,ioos:station:TCOON:072:1,2014-08-09T01:30:00Z,27.8392,-97.4440,0.0,30.9,1111122 
TCOON,ioos:station:TCOON:072:1,2014-08-09T02:30:00Z,27.8392,-97.4440,0.0,30.8,1111122 
TCOON,ioos:station:TCOON:072:1,2014-08-09T03:30:00Z,27.8392,-97.4440,0.0,30.9,1111122 
TCOON,ioos:station:TCOON:072:1,2014-08-09T04:30:00Z,27.8392,-97.4440,0.0,31.0,1111122 
TCOON,ioos:station:TCOON:072:1,2014-08-09T05:30:00Z,27.8392,-97.4440,0.0,30.8,1111122 
TCOON,ioos:station:TCOON:072:1,2014-08-09T06:30:00Z,27.8392,-97.4440,0.0,30.9,1111122 
TCOON,ioos:station:TCOON:072:1,2014-08-09T07:30:00Z,27.8392,-97.4440,0.0,31.0,1111122 
TCOON,ioos:station:TCOON:072:1,2014-08-09T08:30:00Z,27.8392,-97.4440,0.0,30.9,1111122 
TCOON,ioos:station:TCOON:072:1,2014-08-09T09:30:00Z,27.8392,-97.4440,0.0,31.0,1111122 
TCOON,ioos:station:TCOON:072:1,2014-08-09T10:30:00Z,27.8392,-97.4440,0.0,31.5,1111122 
TCOON,ioos:station:TCOON:072:1,2014-08-09T11:30:00Z,27.8392,-97.4440,0.0,31.5,1111122 
TCOON,ioos:station:TCOON:072:1,2014-08-09T12:30:00Z,27.8392,-97.4440,0.0,31.5,1111122 
TCOON,ioos:station:TCOON:072:1,2014-08-09T13:30:00Z,27.8392,-97.4440,0.0,31.3,1111122 
TCOON,ioos:station:TCOON:072:1,2014-08-09T14:30:00Z,27.8392,-97.4440,0.0,31.2,1111122 
TCOON,ioos:station:TCOON:072:1,2014-08-09T15:30:00Z,27.8392,-97.4440,0.0,31.2,1111122 
TCOON,ioos:station:TCOON:072:1,2014-08-09T16:30:00Z,27.8392,-97.4440,0.0,31.3,1111122 
TCOON,ioos:station:TCOON:072:1,2014-08-09T17:30:00Z,27.8392,-97.4440,0.0,31.5,1111122 
TCOON,ioos:station:TCOON:072:1,2014-08-09T18:30:00Z,27.8392,-97.4440,0.0,31.6,1111122 
TCOON,ioos:station:TCOON:072:1,2014-08-09T19:30:00Z,27.8392,-97.4440,0.0,31.4,1111122 
TCOON,ioos:station:TCOON:072:1,2014-08-09T20:30:00Z,27.8392,-97.4440,0.0,31.4,1111122 
TCOON,ioos:station:TCOON:072:1,2014-08-09T21:30:00Z,27.8392,-97.4440,0.0,31.1,1111122 
TCOON,ioos:station:TCOON:072:1,2014-08-09T22:30:00Z,27.8392,-97.4440,0.0,31.3,1111122 
TCOON,ioos:station:TCOON:072:1,2014-08-09T23:30:00Z,27.8392,-97.4440,0.0,30.5,1111122 
TCOON,ioos:station:TCOON:072:1,2014-08-10T00:30:00Z,27.8392,-97.4440,0.0,29.9,1111122 
TCOON,ioos:station:TCOON:072:1,2014-08-10T01:30:00Z,27.8392,-97.4440,0.0,29.5,1111122 
TCOON,ioos:station:TCOON:072:1,2014-08-10T02:30:00Z,27.8392,-97.4440,0.0,29.5,1111122 
TCOON,ioos:station:TCOON:072:1,2014-08-10T03:30:00Z,27.8392,-97.4440,0.0,29.9,1111122 
TCOON,ioos:station:TCOON:072:1,2014-08-10T04:30:00Z,27.8392,-97.4440,0.0,30.0,1111122 
TCOON,ioos:station:TCOON:072:1,2014-08-10T05:30:00Z,27.8392,-97.4440,0.0,30.3,1111122 
TCOON,ioos:station:TCOON:072:1,2014-08-10T07:00:00Z,27.8392,-97.4440,0.0,29.8,1111122 
TCOON,ioos:station:TCOON:072:1,2014-08-10T07:30:00Z,27.8392,-97.4440,0.0,29.5,1111122 
TCOON,ioos:station:TCOON:072:1,2014-08-10T08:30:00Z,27.8392,-97.4440,0.0,29.2,1111122 
TCOON,ioos:station:TCOON:072:1,2014-08-10T10:30:00Z,27.8392,-97.4440,0.0,29.5,1111122 
TCOON,ioos:station:TCOON:072:1,2014-08-10T11:30:00Z,27.8392,-97.4440,0.0,29.8,1111122 
TCOON,ioos:station:TCOON:072:1,2014-08-10T12:30:00Z,27.8392,-97.4440,0.0,29.8,1111122 
TCOON,ioos:station:TCOON:072:1,2014-08-10T13:30:00Z,27.8392,-97.4440,0.0,30.3,1111122 
TCOON,ioos:station:TCOON:072:1,2014-08-10T14:30:00Z,27.8392,-97.4440,0.0,30.0,1111122 
TCOON,ioos:station:TCOON:072:1,2014-08-10T15:30:00Z,27.8392,-97.4440,0.0,29.9,1111122 
TCOON,ioos:station:TCOON:072:1,2014-08-10T16:30:00Z,27.8392,-97.4440,0.0,30.0,1111122 
TCOON,ioos:station:TCOON:072:1,2014-08-10T17:30:00Z,27.8392,-97.4440,0.0,30.4,1111122 
TCOON,ioos:station:TCOON:072:1,2014-08-10T18:30:00Z,27.8392,-97.4440,0.0,31.0,1111122 
TCOON,ioos:station:TCOON:072:1,2014-08-10T19:30:00Z,27.8392,-97.4440,0.0,31.2,1111122 
TCOON,ioos:station:TCOON:072:1,2014-08-10T20:30:00Z,27.8392,-97.4440,0.0,31.3,1111122 
TCOON,ioos:station:TCOON:072:1,2014-08-10T21:30:00Z,27.8392,-97.4440,0.0,31.4,1111122 
TCOON,ioos:station:TCOON:072:1,2014-08-10T22:30:00Z,27.8392,-97.4440,0.0,31.4,1111122 
TCOON,ioos:station:TCOON:072:1,2014-08-10T23:30:00Z,27.8392,-97.4440,0.0,31.5,1111122 
TCOON,ioos:station:TCOON:072:1,2014-08-11T00:30:00Z,27.8392,-97.4440,0.0,31.0,1111122 
TCOON,ioos:station:TCOON:072:1,2014-08-11T01:30:00Z,27.8392,-97.4440,0.0,31.4,1111122 
TCOON,ioos:station:TCOON:072:1,2014-08-11T02:30:00Z,27.8392,-97.4440,0.0,31.4,1111122 
TCOON,ioos:station:TCOON:072:1,2014-08-11T03:30:00Z,27.8392,-97.4440,0.0,31.7,1111122 
TCOON,ioos:station:TCOON:072:1,2014-08-11T04:30:00Z,27.8392,-97.4440,0.0,31.3,1111122 
TCOON,ioos:station:TCOON:072:1,2014-08-11T05:30:00Z,27.8392,-97.4440,0.0,31.1,1111122 
TCOON,ioos:station:TCOON:072:1,2014-08-11T07:00:00Z,27.8392,-97.4440,0.0,30.5,1111122 
TCOON,ioos:station:TCOON:072:1,2014-08-11T07:30:00Z,27.8392,-97.4440,0.0,30.6,1111122 
TCOON,ioos:station:TCOON:072:1,2014-08-11T08:30:00Z,27.8392,-97.4440,0.0,30.0,1111122 
TCOON,ioos:station:TCOON:072:1,2014-08-11T09:30:00Z,27.8392,-97.4440,0.0,29.8,1111122 
TCOON,ioos:station:TCOON:072:1,2014-08-11T10:30:00Z,27.8392,-97.4440,0.0,29.8,1111122 
TCOON,ioos:station:TCOON:072:1,2014-08-11T11:30:00Z,27.8392,-97.4440,0.0,30.1,1111122 
TCOON,ioos:station:TCOON:072:1,2014-08-11T12:30:00Z,27.8392,-97.4440,0.0,30.2,1111122 
TCOON,ioos:station:TCOON:072:1,2014-08-11T13:30:00Z,27.8392,-97.4440,0.0,30.5,1111122 
TCOON,ioos:station:TCOON:072:1,2014-08-11T14:30:00Z,27.8392,-97.4440,0.0,30.7,1111122 
TCOON,ioos:station:TCOON:072:1,2014-08-11T15:30:00Z,27.8392,-97.4440,0.0,30.9,1111122 
TCOON,ioos:station:TCOON:072:1,2014-08-11T16:30:00Z,27.8392,-97.4440,0.0,30.9,1111122 
TCOON,ioos:station:TCOON:072:1,2014-08-11T17:30:00Z,27.8392,-97.4440,0.0,31.1,1111122 
TCOON,ioos:station:TCOON:072:1,2014-08-11T18:30:00Z,27.8392,-97.4440,0.0,31.5,1111122 
TCOON,ioos:station:TCOON:072:1,2014-08-11T19:30:00Z,27.8392,-97.4440,0.0,31.6,1111122 
TCOON,ioos:station:TCOON:072:1,2014-08-11T20:30:00Z,27.8392,-97.4440,0.0,31.8,1111122 
TCOON,ioos:station:TCOON:072:1,2014-08-12T01:00:00Z,27.8392,-97.4440,0.0,31.9,1111122 
TCOON,ioos:station:TCOON:072:1,2014-08-12T01:30:00Z,27.8392,-97.4440,0.0,31.9,1111122 
TCOON,ioos:station:TCOON:072:1,2014-08-12T02:30:00Z,27.8392,-97.4440,0.0,32.1,1111122 
TCOON,ioos:station:TCOON:072:1,2014-08-12T03:30:00Z,27.8392,-97.4440,0.0,31.4,1111122 
TCOON,ioos:station:TCOON:072:1,2014-08-12T04:30:00Z,27.8392,-97.4440,0.0,31.2,1111122 
TCOON,ioos:station:TCOON:072:1,2014-08-12T05:30:00Z,27.8392,-97.4440,0.0,31.2,1111122 
TCOON,ioos:station:TCOON:072:1,2014-08-12T07:00:00Z,27.8392,-97.4440,0.0,30.8,1111122 
TCOON,ioos:station:TCOON:072:1,2014-08-12T07:30:00Z,27.8392,-97.4440,0.0,30.8,1111122 
TCOON,ioos:station:TCOON:072:1,2014-08-12T08:30:00Z,27.8392,-97.4440,0.0,30.8,1111122 
TCOON,ioos:station:TCOON:072:1,2014-08-12T09:30:00Z,27.8392,-97.4440,0.0,30.5,1111122 
TCOON,ioos:station:TCOON:072:1,2014-08-12T10:30:00Z,27.8392,-97.4440,0.0,30.4,1111122 
TCOON,ioos:station:TCOON:072:1,2014-08-12T11:30:00Z,27.8392,-97.4440,0.0,30.9,1111122 
TCOON,ioos:station:TCOON:072:1,2014-08-12T13:00:00Z,27.8392,-97.4440,0.0,30.9,1111122 
TCOON,ioos:station:TCOON:072:1,2014-08-12T13:30:00Z,27.8392,-97.4440,0.0,31.1,1111122 
TCOON,ioos:station:TCOON:072:1,2014-08-12T16:30:00Z,27.8392,-97.4440,0.0,31.6,1111122 
TCOON,ioos:station:TCOON:072:1,2014-08-12T17:30:00Z,27.8392,-97.4440,0.0,31.5,1111122 
TCOON,ioos:station:TCOON:072:1,2014-08-19T14:30:00Z,27.8392,-97.4440,0.0,35.1,1111122 
TCOON,ioos:station:TCOON:072:1,2014-08-19T16:00:00Z,27.8392,-97.4440,0.0,34.5,1111122 
TCOON,ioos:station:TCOON:072:1,2014-08-19T16:30:00Z,27.8392,-97.4440,0.0,33.5,1111122 
TCOON,ioos:station:TCOON:072:1,2014-08-19T17:30:00Z,27.8392,-97.4440,0.0,33.4,1111122 
TCOON,ioos:station:TCOON:072:1,2014-08-19T18:30:00Z,27.8392,-97.4440,0.0,35.3,1111122 
TCOON,ioos:station:TCOON:072:1,2014-08-19T19:30:00Z,27.8392,-97.4440,0.0,35.3,1111122 
TCOON,ioos:station:TCOON:072:1,2014-08-19T20:30:00Z,27.8392,-97.4440,0.0,34.8,1111122 
TCOON,ioos:station:TCOON:072:1,2014-08-19T21:30:00Z,27.8392,-97.4440,0.0,35.3,1111122 
TCOON,ioos:station:TCOON:072:1,2014-08-19T22:30:00Z,27.8392,-97.4440,0.0,35.9,1111122 
TCOON,ioos:station:TCOON:072:1,2014-08-19T23:30:00Z,27.8392,-97.4440,0.0,36.0,1111122 
TCOON,ioos:station:TCOON:072:1,2014-08-20T00:30:00Z,27.8392,-97.4440,0.0,35.3,1111122 
TCOON,ioos:station:TCOON:072:1,2014-08-20T01:30:00Z,27.8392,-97.4440,0.0,34.7,1111122 
TCOON,ioos:station:TCOON:072:1,2014-08-20T03:00:00Z,27.8392,-97.4440,0.0,36.2,1111122 
TCOON,ioos:station:TCOON:072:1,2014-08-20T03:30:00Z,27.8392,-97.4440,0.0,36.1,1111122 
TCOON,ioos:station:TCOON:072:1,2014-08-20T04:30:00Z,27.8392,-97.4440,0.0,35.5,1111122 